Location: Colossi of Memnon
(25.7167°N, 32.6167°E)
Time: 04:21:10
(UTC+00:00)

Cosmos 1745 Rocket - Pass Details

Date: 05 March 2021
Orbit: 954 x 997 km, 83.0° (Epoch: 10 April)

Event Time Altitude Azimuth Distance (km) Brightness Sun altitude
Rises 01:42:13 0° 360° (N) 3,692 7.1 -33.8°
Reaches altitude 10° 01:44:47 10° 3° (N) 2,747 6.5 -33.2°
Maximum altitude 01:51:01 62° 84° (E) 1,106 4.4 -31.8°
Drops below altitude 10° 01:57:16 10° 164° (SSE) 2,753 6.4 -30.4°
Sets 01:59:49 0° 168° (SSE) 3,701 7.1 -29.8°
